PEGASUS DEB

Satellite information

Favourite Embed

Satellite Type and Status

DEBRISIN ORBIT

Key statistics

Satellite PEGASUS DEB at a glance.

Uptime

11373

Days in orbit

Revolutions

≈ 14.5

Per day

Orbit

LEO

Low Earth Orbit

Inclination

81.4

Latest

Satellite identification and parameters

Extended collection of information and parameters for PEGASUS DEB.

Object identification

Identified? True

Debris? True

Object name: PEGASUS DEB

International designator: 1994-029LK

Object number (NORAD): 24236

Object ID (CCSDS): 24236

Country: UNITED STATES OF AMERICA (US)

Current information (Y/N): Y

RCS size: SMALL

Orbital parameters

Period: 99.483 minutes

Inclination: 81.4349 deg

SMA: 7112.027 km

Apoapsis: 972.817 km

Periapsis: 494.967 km

RAAN: 305.7086 deg

Eccentricy: 0.0335945

Argument of periapsis: 320.3991 deg

Mean anomaly: 37.3085 deg

Mean motion: 14.47480197 rev/day

Mean motion (dot): 0.00002842 rev/day2

B* drag term: 0.00037504 1/REarth

Two-line elements (TLE)

Creation date: July 8, 2025, 2:27 a.m.

Reference frame: TEME

Reference center: EARTH

Epoch: July 7, 2025, 6:21 p.m. UTC

TLE line 0: 0 PEGASUS DEB

TLE line 1: 1 24236U 94029LK 25188.76474528 .00002842 00000-0 37504-3 0 9996

TLE line 2: 2 24236 81.4349 305.7086 0335945 320.3991 37.3085 14.47480197484886

Live tracking on map

Real-time ground track for satellite PEGASUS DEB.

In-orbit conjunctions

A list of the most updated potential collisions computed for object PEGASUS DEB.

Target Orbit TCA Probability of collision Miss distance Type
OPS 5798 DEB SSO 2024-09-30 03:58:48 0.0001910561 126.0 (m) DEBRIS

Associated space launch

PEGASUS DEB was lifted into orbit during the mission ‘Pegasus HAPS | Space Test Experiments Platform 2 (STEP-2)’, on board a Pegasus HAPS space rocket.

The launch took place on May 19, 1994, 5:03 p.m. from Edwards Air Force Base.

For more information about the launch, click the button.

Launch to space Pegasus HAPS | Space Test Experiments Platform 2 (STEP-2)
Pegasus HAPS | Space Test Experiments Platform 2 (STEP-2)

Agency: N/A

Status: Launch Successful

Launch date: May 19, 1994, 5:03 p.m. UTC

Rocket: Pegasus HAPS

Launch pad: Edwards Air Force Base

Location: Air launch to orbit

...

Latest news about this satellite

There are no fresh news available about this satellite. Check back as we update our databases every day.


Newsletter sign-up

Weekly statistics, charts and insights to help you stay on top of the space industry.